[[{"header":{"parameterUnit":"m.s-1","parameterCategory":1,"la1":30.2991,"la2":30.254,"lo1":-89.0895,"lo2":-89.0444,"dy":0.0017,"dx":0.0017,"nx":28,"ny":28,"refTime":"2023-11-12T09:00:00:Z","depth":0,"parameterNumber":2,"parameterNumberName":"U-component_of_WINDS"},"data":[0,0,0,0,0,0,0,0,0,0,0,0,0,0,0,0,0,0,0,0,0,0,0,0,0,0,0,0,0,0,0,0,0,0,0,0,0,0,0,0,0,0,0,0,0,0,0,0,0,0,0,0,0,0,0,0,0,0,-3.7455,-3.7455,0,-3.7488,-3.7489,-3.7489,-3.7381,-3.7377,-3.7374,-3.7371,-3.7407,-3.7411,-3.7415,0,0,0,0,0,0,0,0,0,0,0,0,0,-3.7299,-3.7302,-3.7455,-3.7455,-3.7456,-3.7488,-3.7489,-3.7489,-3.7381,-3.7377,-3.7373,-3.737,-3.7405,-3.741,-3.7415,0,0,0,0,0,0,0,0,0,0,0,0,0,-3.7353,-3.7303,-3.7455,-3.7406,-3.7402,-3.7488,-3.7489,-3.7489,-3.7382,-3.7377,-3.7372,-3.7368,-3.7404,-3.741,-3.7416,-3.7551,0,0,-3.7434,-3.7437,0,0,0,0,0,0,0,0,-3.735,-3.7359,-3.7413,-3.7409,-3.7405,-3.7425,-3.7446,-3.751,-3.7383,-3.739,-3.7371,-3.7365,-3.7417,-3.7422,-3.7439,-3.7553,-3.7554,-3.7435,-3.7438,-3.7441,-3.7442,0,0,0,0,0,0,0,-3.7346,-3.7357,-3.7468,-3.7413,-3.7409,-3.7382,-3.7385,-3.7458,-3.7431,-3.7389,-3.7381,-3.7386,-3.7414,-3.7433,-3.7439,-3.7555,-3.7434,-3.744,-3.7443,-3.7446,-3.7783,-3.7788,0,0,0,0,0,0,-3.7349,-3.7354,-3.7467,-3.7469,-3.7365,-3.7389,-3.7392,-3.7424,-3.7429,-3.7426,-3.739,-3.7381,-3.7425,-3.7432,-3.744,-3.7599,-3.7441,-3.7446,-3.745,-3.7777,-3.7784,-3.7789,0,0,0,0,0,0,-3.7346,-3.736,-3.7466,-3.7409,-3.7421,-3.7397,-3.7434,-3.7427,-3.7446,-3.7431,-3.7425,-3.7415,-3.7422,-3.7431,-3.7524,-3.7599,-3.7449,-3.7455,-3.7771,-3.7779,-3.7787,-3.792,0,0,0,0,0,0,-3.7342,-3.7359,-3.7411,-3.7411,-3.7424,-3.755,-3.7438,-3.7431,-3.7457,-3.7445,-3.7453,-3.7449,-3.7419,-3.7516,-3.753,-3.7605,-3.7459,-3.7764,-3.7775,-3.7784,-3.7909,-3.7932,-3.7951,0,0,0,0,0,-3.7337,-3.7447,-3.7414,-3.7428,-3.7488,-3.7554,-3.7562,-3.7524,-3.7463,-3.7514,-3.7505,-3.7449,-3.7588,-3.7526,-3.7542,-3.7619,-3.7759,-3.7772,-3.7783,-3.7899,-3.7927,-3.7951,0,0,0,0,0,0,-3.7456,-3.7446,-3.7409,-3.7523,-3.7541,-3.7536,-3.76,-3.7555,-3.759,-3.7577,-3.7529,-3.7532,-3.7634,-3.7635,-3.7567,-3.7751,-3.7663,-3.7679,-3.7746,-3.7773,-3.7793,-3.7792,-3.7464,0,0,0,0,0,-3.7495,-3.755,-3.7539,-3.764,-3.7651,-3.7624,-3.7652,-3.7621,-3.7637,-3.7644,-3.7641,-3.7659,-3.7707,-3.7739,-3.7782,-3.7908,-3.7909,-3.7969,-3.799,-3.8007,-3.8022,-3.8089,-3.8116,-3.7829,-3.7829,-3.7829,0,0,-3.7578,-3.7579,-3.7617,-3.7664,-3.7674,-3.7732,-3.7631,-3.7697,-3.774,-3.7654,-3.7742,-3.7741,-3.7757,-3.7868,-3.7916,-3.7872,-3.8101,-3.8022,-3.8036,-3.8042,-3.8104,-3.8131,-3.8155,-3.7837,-3.7836,-3.7834,0,0,-3.7758,-3.7764,-3.785,-3.7862,-3.7878,-3.7859,-3.788,-3.7882,-3.7878,-3.7965,-3.7902,-3.7953,-3.8036,-3.8051,-3.8069,-3.8255,-3.8205,-3.827,-3.8381,-3.8447,-3.847,-3.8489,-3.8557,-3.8581,-3.8284,-3.8285,-3.8285,0,-3.7859,-3.7944,-3.79,-3.797,-3.7993,-3.7918,-3.8004,-3.8018,-3.8048,-3.8066,-3.8015,-3.8118,-3.8124,-3.8237,-3.8283,-3.83,-3.8323,-3.827,-3.847,-3.8489,-3.8507,-3.8571,-3.8596,-3.8293,-3.8292,-3.8291,-3.829,0,-3.8067,-3.8127,-3.8194,-3.8225,-3.8255,-3.8333,-3.8302,-3.8338,-3.8304,-3.8291,-3.8381,-3.8386,-3.8429,-3.8453,-3.8421,-3.8562,-3.8534,-3.8478,-3.8389,-3.8543,-3.8602,-3.8626,-3.8304,-3.8301,-3.8299,-3.8297,0,0,-3.8325,-3.8329,-3.8355,-3.8368,-3.838,-3.8425,-3.85,-3.8542,-3.8574,-3.8597,-3.8659,-3.8731,-3.8679,-3.87,-3.8669,-3.8727,-3.8875,-3.8663,-3.8663,-3.8703,-3.9031,-3.9074,-3.9103,-3.8841,-3.8845,-3.8849,-3.903,0,-3.8503,-3.8631,-3.8594,-3.8722,-3.8778,-3.8706,-3.8771,-3.8786,-3.8776,-3.8821,-3.8809,-3.8862,-3.8788,-3.8801,-3.8855,-3.8845,-3.894,-3.8831,-3.8899,-3.8902,-3.8899,-3.9134,-3.918,-3.9351,-3.9053,-3.9056,-3.9059,0,-3.8728,-3.876,-3.8894,-3.8897,-3.8919,-3.8978,-3.9013,-3.9057,-3.9072,-3.9061,-3.9084,-3.9041,-3.9115,-3.9025,-3.9127,-3.9054,-3.9079,-3.9079,-3.9085,-3.9091,-3.8991,-3.9148,-3.9404,-3.943,-3.9095,-3.9092,-3.909,0,-3.8905,-3.898,-3.907,-3.9084,-3.9089,-3.9132,-3.9136,-3.9146,-3.9174,-3.9205,-3.9222,-3.9261,-3.9283,-3.9315,-3.9284,-3.9221,-3.9391,-3.9298,-3.9384,-3.9385,-3.9424,-3.9422,-3.969,-3.9439,-3.9438,-3.9438,-3.9437,0,-3.9108,-3.9194,-3.915,-3.9206,-3.9299,-3.9255,-3.9349,-3.9345,-3.9355,-3.9409,-3.9349,-3.9401,-3.9356,-3.9404,-3.938,-3.9469,-3.9479,-3.9472,-3.9465,-3.9478,-3.9479,-3.9495,-3.9483,-3.9444,-3.9443,-3.9442,-3.944,0,-3.9322,-3.9295,-3.9389,-3.9386,-3.9387,-3.9457,-3.9454,-3.9506,-3.9491,-3.956,-3.9574,-3.955,-3.9604,-3.9575,-3.9631,-3.9615,-3.973,-3.9706,-3.9725,-3.9719,-3.9807,-3.98,-4.0095,-4.0132,-3.9856,-3.9859,-3.9861,0,-3.9454,-3.9518,-3.9522,-3.9554,-3.9562,-3.9614,-3.9641,-3.96,-3.9632,-3.9653,-3.9703,-3.9751,-3.9788,-3.9877,-3.9865,-3.9907,-3.9885,-3.9985,-3.9891,-3.9903,-3.9888,-3.9885,-3.9892,-4.0005,-4.0008,-4.0011,-4.0013,0,-3.9693,-3.9677,-3.9718,-3.9757,-3.9791,-3.9819,-3.9842,-3.9871,-3.983,-3.9869,-3.9923,-3.9951,-4.0007,-4.0057,-4.0093,-4.0097,-4.005,-4.0042,-4.0065,-4.008,-4.0089,-4.0087,-3.9778,-4.0036,-4.0034,-4.0032,-4.0031,-4.003,-3.9871,-3.9924,-3.9936,-3.9984,-3.9997,-4.002,-4.0068,-4.0059,-4.0103,-4.0146,-4.0118,-4.0182,-4.0195,-4.0239,-4.025,-4.03,-4.0259,-4.0292,-4.03,-4.0309,-4.0322,-4.008,-4.0306,-4.0305,-4.0304,-4.0304,-4.0303,0,-4.0107,-4.0111,-4.0156,-4.019,-4.0228,-4.0178,-4.0201,-4.0237,-4.0294,-4.031,-4.0347,-4.0409,-4.0456,-4.0448,-4.0491,-4.0532,-4.0512,-4.0545,-4.0543,-4.0545,-4.0354,-4.0331,-4.0561,-4.0561,-4.0561,-4.0561,-4.0561,-4.0561,-4.0235,-4.0324,-4.0309,-4.0403,-4.0405,-4.0467,-4.0485,-4.0506,-4.0518,-4.059,-4.0629,-4.0623,-4.063,-4.0673,-4.0714,-4.071,-4.0729,-4.0772,-4.076,-4.0583,-4.0558,-4.0534,-4.0512,-4.0776,-4.0776,-4.0946,-4.0948,-4.0949]},{"header":{"parameterUnit":"m.s-1","parameterCategory":1,"la1":30.2991,"la2":30.254,"lo1":-89.0895,"lo2":-89.0444,"dy":0.0017,"dx":0.0017,"nx":28,"ny":28,"refTime":"2023-11-12T09:00:00:Z","depth":0,"parameterNumber":3,"parameterNumberName":"V-component_of_WINDS"},"data":[0,0,0,0,0,0,0,0,0,0,0,0,0,0,0,0,0,0,0,0,0,0,0,0,0,0,0,0,0,0,0,0,0,0,0,0,0,0,0,0,0,0,0,0,0,0,0,0,0,0,0,0,0,0,0,0,0,0,-3.9126,-3.9126,0,-3.9131,-3.9131,-3.9132,-3.9081,-3.9079,-3.9078,-3.9077,-3.9082,-3.9083,-3.9085,0,0,0,0,0,0,0,0,0,0,0,0,0,-3.9069,-3.9071,-3.9126,-3.9126,-3.9126,-3.9131,-3.9131,-3.9132,-3.9081,-3.9079,-3.9078,-3.9076,-3.9081,-3.9083,-3.9085,0,0,0,0,0,0,0,0,0,0,0,0,0,-3.9086,-3.9071,-3.9126,-3.9101,-3.9099,-3.9131,-3.9131,-3.9132,-3.9082,-3.9079,-3.9077,-3.9075,-3.9081,-3.9083,-3.9085,-3.9141,0,0,-3.9092,-3.9093,0,0,0,0,0,0,0,0,-3.9085,-3.9088,-3.9105,-3.9103,-3.9101,-3.9103,-3.9113,-3.9135,-3.9082,-3.9088,-3.9077,-3.9074,-3.9091,-3.9092,-3.9098,-3.9141,-3.9141,-3.9092,-3.9093,-3.9094,-3.9095,0,0,0,0,0,0,0,-3.9084,-3.9088,-3.9128,-3.9105,-3.9103,-3.909,-3.909,-3.9117,-3.9101,-3.9088,-3.9084,-3.9085,-3.9089,-3.9096,-3.9097,-3.9141,-3.9092,-3.9094,-3.9095,-3.9096,-3.9229,-3.9231,0,0,0,0,0,0,-3.9087,-3.9087,-3.9128,-3.9128,-3.9088,-3.9092,-3.9092,-3.9105,-3.9101,-3.9098,-3.9087,-3.9083,-3.9093,-3.9095,-3.9097,-3.9161,-3.9094,-3.9096,-3.9097,-3.9227,-3.9229,-3.9232,0,0,0,0,0,0,-3.9086,-3.9091,-3.9127,-3.9107,-3.911,-3.9096,-3.911,-3.9106,-3.9112,-3.91,-3.9097,-3.9097,-3.9091,-3.9094,-3.913,-3.9161,-3.9097,-3.9099,-3.9224,-3.9228,-3.9231,-3.929,0,0,0,0,0,0,-3.9084,-3.9091,-3.9112,-3.9108,-3.9112,-3.9161,-3.9112,-3.9107,-3.9116,-3.9111,-3.9109,-3.9106,-3.909,-3.9127,-3.9132,-3.9162,-3.9101,-3.9221,-3.9226,-3.923,-3.9285,-3.9295,-3.9303,0,0,0,0,0,-3.9082,-3.9129,-3.9113,-3.9119,-3.9138,-3.9163,-3.9165,-3.9145,-3.9119,-3.914,-3.9132,-3.9106,-3.9157,-3.9131,-3.9136,-3.9168,-3.9219,-3.9224,-3.9229,-3.9281,-3.9293,-3.9303,0,0,0,0,0,0,-3.9137,-3.9128,-3.9111,-3.9157,-3.9161,-3.9154,-3.918,-3.9159,-3.917,-3.9165,-3.914,-3.914,-3.9179,-3.9177,-3.9149,-3.9221,-3.9183,-3.9189,-3.9221,-3.9232,-3.9241,-3.924,-3.9103,0,0,0,0,0,-3.9155,-3.9176,-3.9166,-3.9208,-3.9211,-3.9195,-3.9205,-3.919,-3.9193,-3.9194,-3.9189,-3.9193,-3.9209,-3.922,-3.9235,-3.9285,-3.9283,-3.9309,-3.9318,-3.9325,-3.9331,-3.9356,-3.9367,-3.9248,-3.9248,-3.9248,0,0,-3.9191,-3.9188,-3.9203,-3.9219,-3.922,-3.9241,-3.9197,-3.9222,-3.9237,-3.9198,-3.9231,-3.9227,-3.923,-3.9272,-3.9291,-3.9272,-3.9363,-3.9332,-3.9338,-3.9339,-3.9362,-3.9373,-3.9383,-3.9252,-3.9251,-3.9251,0,0,-3.9268,-3.9268,-3.9302,-3.9305,-3.9307,-3.9296,-3.9305,-3.9301,-3.9297,-3.933,-3.93,-3.9318,-3.9347,-3.935,-3.9355,-3.9432,-3.9408,-3.9437,-3.9484,-3.9509,-3.9518,-3.9526,-3.9553,-3.9563,-3.9443,-3.9443,-3.9443,0,-3.9312,-3.9344,-3.9323,-3.9349,-3.9357,-3.9322,-3.9356,-3.9359,-3.9366,-3.9371,-3.935,-3.9385,-3.9384,-3.9426,-3.9445,-3.9451,-3.9459,-3.9437,-3.9519,-3.9526,-3.9534,-3.9559,-3.9569,-3.9447,-3.9446,-3.9446,-3.9446,0,-3.9398,-3.9421,-3.9448,-3.9455,-3.9466,-3.9496,-3.9479,-3.9492,-3.9475,-3.9467,-3.95,-3.9498,-3.9511,-3.952,-3.9504,-3.956,-3.9547,-3.9523,-3.9484,-3.9549,-3.9572,-3.9581,-3.9452,-3.945,-3.9449,-3.9449,0,0,-3.951,-3.9505,-3.9515,-3.9517,-3.9517,-3.9534,-3.9562,-3.9575,-3.9586,-3.9592,-3.9614,-3.9639,-3.9616,-3.9622,-3.9606,-3.9628,-3.9688,-3.9601,-3.96,-3.9616,-3.9748,-3.9766,-3.9777,-3.9673,-3.9674,-3.9676,-3.9747,0,-3.9584,-3.9632,-3.9613,-3.9662,-3.9682,-3.9649,-3.9673,-3.9675,-3.9668,-3.9683,-3.9675,-3.9693,-3.9661,-3.9665,-3.9685,-3.9677,-3.9714,-3.9671,-3.9692,-3.9693,-3.9692,-3.9789,-3.9808,-3.9876,-3.9756,-3.9758,-3.9759,0,-3.9677,-3.9686,-3.9737,-3.9732,-3.974,-3.9762,-3.9772,-3.9787,-3.9789,-3.9782,-3.9788,-3.9767,-3.9794,-3.9756,-3.9792,-3.9764,-3.9771,-3.9769,-3.9771,-3.9771,-3.9729,-3.9791,-3.9897,-3.9907,-3.9773,-3.9772,-3.9771,0,-3.9752,-3.9777,-3.9811,-3.9814,-3.981,-3.9826,-3.9825,-3.9824,-3.9832,-3.9841,-3.9846,-3.9857,-3.9864,-3.9873,-3.9855,-3.983,-3.9893,-3.9855,-3.9888,-3.9888,-3.9902,-3.9901,-4.0009,-3.9909,-3.9908,-3.9908,-3.9908,0,-3.9836,-3.9868,-3.9844,-3.9865,-3.99,-3.9877,-3.9912,-3.9908,-3.9907,-3.9926,-3.9898,-3.9916,-3.9893,-3.9908,-3.9895,-3.9926,-3.9929,-3.9924,-3.992,-3.9926,-3.9926,-3.993,-3.9924,-3.9911,-3.991,-3.991,-3.9909,0,-3.9925,-3.991,-3.9944,-3.9937,-3.9936,-3.9962,-3.9956,-3.9974,-3.9965,-3.9988,-3.9993,-3.9978,-3.9995,-3.9978,-3.9995,-3.9985,-4.0027,-4.0017,-4.0026,-4.0023,-4.0057,-4.0053,-4.017,-4.0184,-4.0075,-4.0076,-4.0077,0,-3.9979,-4.0003,-3.9998,-4.0009,-4.0009,-4.0027,-4.0035,-4.0014,-4.0023,-4.0026,-4.0044,-4.0059,-4.0069,-4.0098,-4.0088,-4.01,-4.0089,-4.0129,-4.0091,-4.0096,-4.0088,-4.0087,-4.0088,-4.0137,-4.0138,-4.0139,-4.014,0,-4.0077,-4.0068,-4.0081,-4.0091,-4.0102,-4.0109,-4.0114,-4.0124,-4.0103,-4.0115,-4.0132,-4.014,-4.0156,-4.017,-4.0179,-4.0177,-4.0155,-4.0152,-4.016,-4.0166,-4.017,-4.0167,-4.0047,-4.0149,-4.0148,-4.0148,-4.0147,-4.0147,-4.0149,-4.0168,-4.0168,-4.0183,-4.0184,-4.019,-4.0206,-4.0198,-4.0212,-4.0223,-4.021,-4.023,-4.023,-4.024,-4.0241,-4.0256,-4.0239,-4.0251,-4.0254,-4.0257,-4.0261,-4.0169,-4.0258,-4.0257,-4.0257,-4.0257,-4.0257,0,-4.0244,-4.0242,-4.0256,-4.0264,-4.0275,-4.0253,-4.0257,-4.0269,-4.0287,-4.0289,-4.0299,-4.0318,-4.0332,-4.0323,-4.0335,-4.0349,-4.0338,-4.0352,-4.035,-4.035,-4.0276,-4.0268,-4.036,-4.036,-4.036,-4.036,-4.036,-4.036,-4.0295,-4.0326,-4.0317,-4.0348,-4.0345,-4.0365,-4.0369,-4.0373,-4.0375,-4.0397,-4.0408,-4.0402,-4.04,-4.0411,-4.0422,-4.0419,-4.0424,-4.0441,-4.0435,-4.0366,-4.0356,-4.0346,-4.0338,-4.0443,-4.0443,-4.0507,-4.0508,-4.0508]}]]